Hourly Weather Roundup
Issued by NWS Central Illinois

Home | Current Version | Previous Version | Text Only | Print | Product List | Glossary On
Versions: 1 2 3 4 5 6 7 8 9 10 11 12 13 14 15 16 17 18 19 20 21 22 23 24 25 26 27 28 29 30 31 32 33 34 35 36 37 38 39 40 41 42 43 44 45 46 47 48 49 50
000
NZUS43 KILX 300910
HWRILX

AREA WEATHER ROUNDUP
NATIONAL WEATHER SERVICE, LINCOLN IL
400 AM CDT SUN AUG 30 2015


CITY           SKY/WX    TMP DP  RH WIND       PRES   REMARKS
BLOOMINGTON    MOCLDY    68  68 100 N3        30.03S FOG
CHAMPAIGN      CLEAR     65  64  97 S5        30.02S FOG
DANVILLE       FOG       62  62  99 CALM      30.00S VSB 1/4
DECATUR        PTCLDY    69  65  86 SW3       30.02S
EFFINGHAM      CLOUDY    66  63  89 E3        30.04R
FLORA          PTCLDY    66  64  93 CALM      30.03S
GALESBURG      FOG       63  62  97 CALM      30.03S VSB 1/4
JACKSONVILLE   CLEAR     68  66  95 CALM      30.01R FOG
LACON          FOG       64  62  96 CALM      30.01S VSB 1/2
LAWRENCEVILLE  PTCLDY    68  67  96 CALM      30.03S FOG
LITCHFIELD     CLEAR     67  65  94 S3        30.01S FOG
$$


CITY           SKY/WX    TMP DP  RH WIND       PRES   REMARKS
LINCOLN        CLOUDY    71  67  88 CALM      30.01S
MACOMB         CLOUDY    67  67  99 CALM      30.04S FOG
MATTOON        CLEAR     68  63  84 S3        30.02S
MT CARMEL AP   PTCLDY    68  64  88 CALM      30.03S FOG
OLNEY-NOBLE AP CLEAR     66  64  94 CALM      30.03S
PARIS          CLEAR     65  64  97 S3        30.04R
PEORIA         CLOUDY    71  67  87 NE3       30.02R
PONTIAC        CLOUDY    68  68 100 CALM      30.03S FOG
RANTOUL        MOCLDY    68  68  98 SE3       30.02R FOG
ROBINSON       PTCLDY    66  65  97 CALM      30.04S FOG
SPRINGFIELD    PTCLDY    67  65  93 CALM      30.01R
TAYLORVILLE    CLEAR     64  64 100 S3        30.01S
$$

...REGIONAL REPORTS...


CITY           SKY/WX    TMP DP  RH WIND       PRES   REMARKS
CHICAGO O`HARE CLOUDY    65  63  93 N5        30.02S
KANKAKEE       CLOUDY    67  67  99 CALM      30.02S FOG
MOLINE         FOG       60  59  96 CALM      30.03S VSB 1/4
MOUNT STERLING FOG       66  66 100 N5        30.01R VSB 1/4
MOUNT VERNON   CLOUDY    66  63  88 CALM      30.03S
PITTSFIELD     FOG       68  66  95 CALM      30.02R VSB 1/4
QUINCY         FOG       67  66  97 N6        30.01S VSB 1
ROCKFORD       CLOUDY    66  62  87 CALM      30.05R
$$


CITY           SKY/WX    TMP DP  RH WIND       PRES   REMARKS
BURLINGTON     FOG       67  67 100 NE5       30.03R VSB 1/2
CEDAR RAPIDS   CLOUDY    59  59 100 CALM      30.04R FOG
DES MOINES     PTCLDY    62  59  90 CALM      30.03S FOG
KIRKSVILLE     FOG       68  67  96 NE9       30.03S VSB 1/2
OTTUMWA        FOG       65  65 100 NE3       30.02S VSB 1/4
ST LOUIS       PTCLDY    74  65  73 S3        30.01S
$$


CITY           SKY/WX    TMP DP  RH WIND       PRES   REMARKS
TERRE HAUTE    CLEAR     63  62  97 CALM      30.04R
EVANSVILLE     MOCLDY    72  70  93 SW3       30.04S
INDIANAPOLIS   MOCLDY    70  66  87 W3        30.03R
LAFAYETTE      FOG       63  63 100 CALM      30.02R VSB 1/4
MADISON        CLOUDY    63  61  93 CALM      30.04F FOG
MILWAUKEE      FOG       62  61  96 N5        30.03S VSB 1/4
$$




USA.gov is the U.S. government's official web portal to all federal, state and local government web resources and services.